This is the latest recevied weather packets stored in our database for station/object KM4CBK. If no packets are shown the sender has not sent any weather packets the latest 10 day(s).
| Time | Temp. | Humidity | Pressure | Rain* | Wind** | Luminosity | Snow |
|---|---|---|---|---|---|---|---|
| 1778000675 | 25° C | 56% | 1014.1 hPa | 0 mm | - | 625 W/m² | - |
| 1778000370 | 25.56° C | 55% | 1014.3 hPa | 0 mm | - | 648 W/m² | - |
| 1778000067 | 25.56° C | 55% | 1014.4 hPa | 0 mm | - | 658 W/m² | - |
| 1777999762 | 25.56° C | 52% | 1014.3 hPa | 0 mm | - | 666 W/m² | - |
| 1777999459 | 25° C | 56% | 1014.4 hPa | 0 mm | - | 668 W/m² | - |
| 1777999157 | 24.44° C | 56% | 1014.3 hPa | 0 mm | - | 628 W/m² | - |
| 1777998856 | 25.56° C | 54% | 1014.4 hPa | 0 mm | - | 569 W/m² | - |
| 1777998554 | 24.44° C | 54% | 1014.5 hPa | 0 mm | - | 681 W/m² | - |
| 1777998249 | 24.44° C | 55% | 1014.3 hPa | 0 mm | - | 656 W/m² | - |
| 1777997947 | 23.89° C | 55% | 1014.5 hPa | 0 mm | - | 669 W/m² | - |
| 1777997644 | 23.89° C | 57% | 1014.6 hPa | 0 mm | - | 647 W/m² | - |
| 1777997341 | 23.33° C | 57% | 1014.8 hPa | 0 mm | - | 651 W/m² | - |
| 1777997039 | 23.89° C | 60% | 1014.8 hPa | 0 mm | - | 574 W/m² | - |
| 1777996735 | 23.33° C | 60% | 1014.8 hPa | 0 mm | - | 590 W/m² | - |
| 1777996431 | 23.89° C | 55% | 1014.8 hPa | 0 mm | - | 571 W/m² | - |
| 1777996128 | 24.44° C | 58% | 1015 hPa | 0 mm | - | 653 W/m² | - |
| 1777995824 | 23.33° C | 56% | 1015 hPa | 0 mm | - | 358 W/m² | - |
| 1777995521 | 23.89° C | 57% | 1014.8 hPa | 0 mm | - | 623 W/m² | - |
| 1777995218 | 23.89° C | 57% | 1015 hPa | 0 mm | - | 681 W/m² | - |
| 1777994915 | 23.89° C | 59% | 1015.1 hPa | 0 mm | - | 657 W/m² | - |
| 1777994611 | 22.78° C | 61% | 1015.3 hPa | 0 mm | - | 598 W/m² | - |
| 1777994306 | 23.33° C | 61% | 1015.2 hPa | 0 mm | - | 538 W/m² | - |
| 1777994003 | 22.78° C | 61% | 1015.1 hPa | 0 mm | - | 599 W/m² | - |
| 1777993700 | 22.78° C | 65% | 1015.1 hPa | 0 mm | - | 568 W/m² | - |
| 1777993397 | 22.78° C | 65% | 1014.9 hPa | 0 mm | - | 525 W/m² | - |
* Rain latest hour (hover to see other rain measurements)
** Current wind speed in m/s (hover to see current wind gust speed)